SAS1256 LIML-LIRF

Flight info

Callsign SAS1256
Flight time 0h 49m
Altitude 33000
Route EKPAL DCT TINKU DCT XIBIL
Aircraft A320/M-SDE3FGHIRWY/LB1

Departure

Time 2026-02-19 15:02
Airport Milano Linate Airport (LIML)

Arrival

Time 2026-02-19 15:51
Airport Rome–Fiumicino Leonardo da Vinci International Airport (LIRF)
Time Latitude Longitude Altitude Speed Heading
2026-02-19 14:32 45.45972 9.27904 360 ft 0 kts
2026-02-19 14:51 45.45970 9.27904 360 ft 2 kts
2026-02-19 14:51 45.45952 9.27903 360 ft 3 kts
2026-02-19 14:51 45.45932 9.27898 360 ft 3 kts 18°
2026-02-19 14:51 45.45915 9.27887 360 ft 3 kts 50°
2026-02-19 14:52 45.45908 9.27871 363 ft 1 kts 90°
2026-02-19 14:52 45.45908 9.27870 360 ft 0 kts 90°
2026-02-19 14:55 45.45908 9.27895 363 ft 4 kts 90°
2026-02-19 14:55 45.45905 9.27949 363 ft 7 kts 102°
2026-02-19 14:55 45.45865 9.27983 364 ft 8 kts 175°
2026-02-19 14:56 45.45800 9.27983 361 ft 11 kts 180°
2026-02-19 14:56 45.45614 9.27979 363 ft 16 kts 181°
2026-02-19 14:56 45.45492 9.27976 360 ft 19 kts 179°
2026-02-19 14:57 45.45354 9.27951 362 ft 21 kts 205°
2026-02-19 14:57 45.45207 9.27873 358 ft 24 kts 189°
2026-02-19 14:57 45.45051 9.27886 364 ft 24 kts 175°
2026-02-19 14:57 45.44884 9.27929 362 ft 26 kts 165°
2026-02-19 14:58 45.44698 9.27953 361 ft 28 kts 178°
2026-02-19 14:58 45.44581 9.28081 360 ft 25 kts 58°
2026-02-19 14:58 45.44580 9.28213 361 ft 4 kts 159°
2026-02-19 14:58 45.44562 9.28207 358 ft 4 kts 196°
2026-02-19 14:59 45.44354 9.28053 360 ft 49 kts 205°
2026-02-19 14:59 45.44026 9.28024 358 ft 45 kts 176°
2026-02-19 14:59 45.43814 9.28042 349 ft 46 kts 175°
2026-02-19 14:59 45.43527 9.28062 347 ft 33 kts 183°
2026-02-19 15:00 45.43453 9.27973 347 ft 14 kts 241°
2026-02-19 15:00 45.43444 9.27923 347 ft 4 kts 261°
2026-02-19 15:00 45.43447 9.27880 348 ft 5 kts 285°
2026-02-19 15:01 45.43476 9.27829 356 ft 9 kts 327°
2026-02-19 15:01 45.43573 9.27810 352 ft 33 kts 354°
2026-02-19 15:01 45.44043 9.27758 355 ft 99 kts 355°
2026-02-19 15:01 45.44896 9.27667 362 ft 147 kts 355°
2026-02-19 15:02 45.45999 9.27529 653 ft 161 kts 359°
2026-02-19 15:02 45.47147 9.27564 1155 ft 170 kts 23°
2026-02-19 15:02 45.48081 9.28632 1681 ft 188 kts 63°
2026-02-19 15:02 45.48184 9.30555 1939 ft 212 kts 110°
2026-02-19 15:03 45.47394 9.32454 2263 ft 235 kts 130°
2026-02-19 15:03 45.46248 9.34285 2720 ft 259 kts 135°
2026-02-19 15:03 45.44817 9.35950 3397 ft 270 kts 153°
2026-02-19 15:03 45.43132 9.37207 4105 ft 281 kts 154°
2026-02-19 15:04 45.41400 9.38501 5063 ft 280 kts 153°
2026-02-19 15:04 45.37963 9.41218 6827 ft 289 kts 150°
2026-02-19 15:04 45.36208 9.42669 7615 ft 295 kts 150°
2026-02-19 15:05 45.34423 9.44165 8411 ft 300 kts 149°
2026-02-19 15:05 45.32606 9.45697 9189 ft 306 kts 149°
2026-02-19 15:05 45.30756 9.47261 9912 ft 312 kts 149°
2026-02-19 15:05 45.28890 9.48837 10591 ft 320 kts 149°
2026-02-19 15:06 45.26883 9.50531 10834 ft 344 kts 149°
2026-02-19 15:06 45.24787 9.52295 11063 ft 364 kts 149°
2026-02-19 15:06 45.22549 9.54085 11620 ft 373 kts 155°
2026-02-19 15:06 45.20117 9.55428 12309 ft 377 kts 161°
2026-02-19 15:07 45.17638 9.56706 13010 ft 382 kts 161°
2026-02-19 15:07 45.15125 9.57999 13660 ft 386 kts 161°
2026-02-19 15:07 45.12585 9.59305 14281 ft 389 kts 161°
2026-02-19 15:07 45.10036 9.60616 14897 ft 391 kts 161°
2026-02-19 15:08 45.07505 9.61967 15509 ft 394 kts 159°
2026-02-19 15:08 45.02452 9.65158 16726 ft 400 kts 155°
2026-02-19 15:08 44.99936 9.66877 17341 ft 403 kts 154°
2026-02-19 15:09 44.97407 9.68619 17959 ft 406 kts 154°
2026-02-19 15:09 44.94844 9.70359 18534 ft 409 kts 155°
2026-02-19 15:09 44.92295 9.72057 19136 ft 411 kts 155°
2026-02-19 15:09 44.89687 9.73767 19762 ft 413 kts 155°
2026-02-19 15:10 44.87057 9.75472 19916 ft 414 kts 156°
2026-02-19 15:10 44.84423 9.77169 20473 ft 416 kts 156°
2026-02-19 15:10 44.81790 9.78863 21107 ft 417 kts 156°
2026-02-19 15:10 44.79150 9.80571 21709 ft 418 kts 156°
2026-02-19 15:11 44.76504 9.82288 22280 ft 419 kts 156°
2026-02-19 15:11 44.73853 9.84009 22829 ft 421 kts 156°
2026-02-19 15:11 44.71194 9.85739 23334 ft 423 kts 155°
2026-02-19 15:11 44.68636 9.87812 23741 ft 425 kts 146°
2026-02-19 15:12 44.66363 9.90399 24136 ft 428 kts 136°
2026-02-19 15:12 44.62190 9.96430 24910 ft 432 kts 135°
2026-02-19 15:12 44.60064 9.99506 25298 ft 434 kts 135°
2026-02-19 15:13 44.57978 10.02511 25686 ft 436 kts 136°
2026-02-19 15:13 44.55859 10.05553 26083 ft 438 kts 136°
2026-02-19 15:13 44.53718 10.08619 26457 ft 440 kts 136°
2026-02-19 15:13 44.51577 10.11693 26821 ft 442 kts 136°
2026-02-19 15:14 44.49279 10.14549 27195 ft 442 kts 145°
2026-02-19 15:14 44.46704 10.16882 27564 ft 441 kts 154°
2026-02-19 15:14 44.43915 10.18646 27940 ft 440 kts 162°
2026-02-19 15:14 44.41049 10.20155 28297 ft 442 kts 162°
2026-02-19 15:15 44.38165 10.21677 28653 ft 444 kts 162°
2026-02-19 15:15 44.35274 10.23206 29043 ft 444 kts 162°
2026-02-19 15:15 44.32389 10.24733 29573 ft 442 kts 162°
2026-02-19 15:15 44.29512 10.26254 29847 ft 441 kts 162°
2026-02-19 15:16 44.26647 10.27769 30088 ft 441 kts 162°
2026-02-19 15:16 44.20901 10.30801 30507 ft 443 kts 162°
2026-02-19 15:17 44.15139 10.33826 30564 ft 442 kts 163°
2026-02-19 15:17 44.09383 10.36842 30573 ft 442 kts 163°
2026-02-19 15:18 44.03631 10.39854 30583 ft 441 kts 163°
2026-02-19 15:18 43.97851 10.42860 30620 ft 441 kts 163°
2026-02-19 15:19 43.92142 10.45837 30640 ft 441 kts 163°
2026-02-19 15:19 43.86402 10.48827 30656 ft 440 kts 163°
2026-02-19 15:20 43.80631 10.51827 30660 ft 440 kts 163°
2026-02-19 15:20 43.72053 10.56165 30665 ft 439 kts 165°
2026-02-19 15:21 43.66274 10.58811 30667 ft 437 kts 166°
2026-02-19 15:21 43.60497 10.61421 30666 ft 436 kts 166°
2026-02-19 15:22 43.51859 10.65407 30660 ft 436 kts 166°
2026-02-19 15:23 43.46114 10.68081 30664 ft 436 kts 166°
2026-02-19 15:23 43.40370 10.70742 30662 ft 435 kts 166°
2026-02-19 15:24 43.28922 10.75986 30663 ft 434 kts 166°
2026-02-19 15:25 43.23213 10.78600 30266 ft 428 kts 166°
2026-02-19 15:25 43.20396 10.79897 29763 ft 423 kts 166°
2026-02-19 15:25 43.17614 10.81177 29171 ft 418 kts 166°
2026-02-19 15:25 43.14903 10.82421 28602 ft 414 kts 166°
2026-02-19 15:26 43.12180 10.83664 28033 ft 410 kts 166°
2026-02-19 15:26 43.09486 10.84890 27504 ft 405 kts 166°
2026-02-19 15:26 43.06818 10.86102 26958 ft 401 kts 166°
2026-02-19 15:26 43.04180 10.87302 26660 ft 392 kts 166°
2026-02-19 15:27 43.01631 10.88467 26508 ft 380 kts 166°
2026-02-19 15:27 42.99159 10.89597 26381 ft 369 kts 167°
2026-02-19 15:27 42.96778 10.90681 26251 ft 360 kts 167°
2026-02-19 15:27 42.94430 10.91746 26116 ft 351 kts 167°
2026-02-19 15:28 42.92136 10.92789 25991 ft 341 kts 167°
2026-02-19 15:28 42.87758 10.94777 25730 ft 321 kts 168°
2026-02-19 15:28 42.85660 10.95708 25604 ft 312 kts 168°
2026-02-19 15:29 42.83645 10.96611 25434 ft 305 kts 168°
2026-02-19 15:29 42.81603 10.97659 24604 ft 324 kts 159°
2026-02-19 15:29 42.79668 10.99410 23880 ft 344 kts 144°
2026-02-19 15:30 42.76719 11.04731 22939 ft 355 kts 128°
2026-02-19 15:30 42.75387 11.07565 22502 ft 353 kts 128°
2026-02-19 15:30 42.74076 11.10339 22079 ft 351 kts 128°
2026-02-19 15:30 42.72754 11.13125 21655 ft 349 kts 128°
2026-02-19 15:31 42.71438 11.15903 21244 ft 348 kts 128°
2026-02-19 15:31 42.68835 11.21411 20437 ft 344 kts 128°
2026-02-19 15:31 42.67557 11.24109 20165 ft 339 kts 128°
2026-02-19 15:32 42.66301 11.26763 20023 ft 329 kts 128°
2026-02-19 15:32 42.63885 11.31858 19760 ft 312 kts 129°
2026-02-19 15:32 42.62719 11.34309 19619 ft 304 kts 129°
2026-02-19 15:33 42.60453 11.39041 19162 ft 296 kts 129°
2026-02-19 15:33 42.59335 11.41373 18907 ft 293 kts 129°
2026-02-19 15:33 42.58229 11.43689 18658 ft 290 kts 129°
2026-02-19 15:34 42.56027 11.48214 18169 ft 282 kts 135°
2026-02-19 15:34 42.54744 11.50197 17866 ft 278 kts 141°
2026-02-19 15:34 42.53287 11.51865 17287 ft 279 kts 154°
2026-02-19 15:35 42.51529 11.53012 16628 ft 283 kts 165°
2026-02-19 15:35 42.49641 11.53936 15995 ft 293 kts 166°
2026-02-19 15:35 42.47685 11.54855 15363 ft 302 kts 166°
2026-02-19 15:35 42.45668 11.55792 14744 ft 310 kts 166°
2026-02-19 15:36 42.43602 11.56749 14139 ft 317 kts 165°
2026-02-19 15:36 42.39439 11.58697 13368 ft 314 kts 165°
2026-02-19 15:36 42.37401 11.59659 13086 ft 302 kts 165°
2026-02-19 15:37 42.35440 11.60584 12821 ft 295 kts 165°
2026-02-19 15:37 42.33515 11.61485 12542 ft 291 kts 165°
2026-02-19 15:37 42.31603 11.62374 12275 ft 287 kts 165°
2026-02-19 15:37 42.29725 11.63247 11998 ft 284 kts 165°
2026-02-19 15:38 42.27868 11.64112 11756 ft 280 kts 165°
2026-02-19 15:38 42.26057 11.64955 11491 ft 277 kts 166°
2026-02-19 15:38 42.24246 11.65765 11348 ft 269 kts 166°
2026-02-19 15:38 42.22448 11.66540 11136 ft 270 kts 167°
2026-02-19 15:39 42.20654 11.67301 10932 ft 270 kts 167°
2026-02-19 15:39 42.18862 11.68063 10671 ft 269 kts 167°
2026-02-19 15:39 42.17079 11.68826 10388 ft 268 kts 167°
2026-02-19 15:39 42.15326 11.69579 10108 ft 266 kts 167°
2026-02-19 15:40 42.13561 11.70332 9847 ft 266 kts 167°
2026-02-19 15:40 42.10006 11.71852 9207 ft 265 kts 167°
2026-02-19 15:41 42.06764 11.73868 8592 ft 261 kts 137°
2026-02-19 15:41 42.05844 11.75973 8215 ft 265 kts 106°
2026-02-19 15:41 42.05797 11.78444 7900 ft 268 kts 76°
2026-02-19 15:41 42.06342 11.80846 7581 ft 267 kts 71°
2026-02-19 15:42 42.06908 11.83223 7269 ft 267 kts 71°
2026-02-19 15:42 42.07478 11.85605 6962 ft 266 kts 71°
2026-02-19 15:42 42.08047 11.87981 6649 ft 266 kts 71°
2026-02-19 15:42 42.08616 11.90360 6324 ft 267 kts 71°
2026-02-19 15:43 42.09182 11.92744 6009 ft 266 kts 72°
2026-02-19 15:43 42.09736 11.95090 5692 ft 266 kts 71°
2026-02-19 15:43 42.10296 11.97465 5367 ft 266 kts 71°
2026-02-19 15:43 42.10854 11.99829 5090 ft 263 kts 72°
2026-02-19 15:44 42.11264 12.02185 4817 ft 254 kts 88°
2026-02-19 15:44 42.10214 12.06394 4243 ft 232 kts 135°
2026-02-19 15:44 42.09498 12.07445 4060 ft 229 kts 136°
2026-02-19 15:45 42.08414 12.09027 3762 ft 228 kts 135°
2026-02-19 15:45 42.06987 12.11117 3368 ft 229 kts 135°
2026-02-19 15:45 42.06270 12.12165 3176 ft 229 kts 135°
2026-02-19 15:45 42.05193 12.13742 2917 ft 226 kts 136°
2026-02-19 15:46 42.04149 12.15273 2832 ft 218 kts 135°
2026-02-19 15:46 42.03131 12.16766 2706 ft 213 kts 136°
2026-02-19 15:46 42.02114 12.18235 2727 ft 211 kts 141°
2026-02-19 15:46 42.00923 12.19273 2734 ft 201 kts 165°
2026-02-19 15:47 41.99601 12.19845 2745 ft 199 kts 168°
2026-02-19 15:47 41.98276 12.20403 2671 ft 199 kts 168°
2026-02-19 15:47 41.96957 12.20959 2444 ft 198 kts 168°
2026-02-19 15:47 41.95659 12.21504 2212 ft 197 kts 168°
2026-02-19 15:48 41.94342 12.22058 1937 ft 198 kts 168°
2026-02-19 15:48 41.91794 12.23132 1432 ft 181 kts 169°
2026-02-19 15:48 41.90628 12.23623 1161 ft 168 kts 169°
2026-02-19 15:49 41.89551 12.24076 942 ft 157 kts 170°
2026-02-19 15:49 41.88534 12.24502 870 ft 150 kts 172°
2026-02-19 15:49 41.87568 12.24905 676 ft 146 kts 170°
2026-02-19 15:49 41.86613 12.25307 484 ft 141 kts 171°
2026-02-19 15:50 41.85686 12.25739 294 ft 143 kts 170°
2026-02-19 15:50 41.84755 12.26119 153 ft 139 kts 171°
2026-02-19 15:50 41.83826 12.26416 28 ft 133 kts 163°
2026-02-19 15:50 41.83101 12.26768 21 ft 86 kts 161°
2026-02-19 15:51 41.82664 12.26851 21 ft 53 kts 192°
2026-02-19 15:51 41.82518 12.26802 19 ft 0 kts 193°
2026-02-19 15:52 41.82470 12.26788 18 ft 12 kts 191°
2026-02-19 15:52 41.82266 12.26808 15 ft 18 kts 173°